TimeEST,TemperatureF,Dew PointF,Humidity,Sea Level PressureIn,VisibilityMPH,Wind Direction,Wind SpeedMPH,Gust SpeedMPH,PrecipitationIn,Events,Conditions,WindDirDegrees,DateUTC
12:53 AM,19.0,1.9,47,30.37,10.0,West,3.5,-,N/A,,Scattered Clouds,270,2013-01-23 05:53:00
1:53 AM,19.0,1.9,47,30.36,10.0,Calm,Calm,-,N/A,,Clear,0,2013-01-23 06:53:00
2:53 AM,18.0,7.0,62,30.38,10.0,Calm,Calm,-,N/A,,Mostly Cloudy,0,2013-01-23 07:53:00
3:53 AM,19.0,3.9,52,30.38,10.0,WNW,3.5,-,N/A,,Overcast,300,2013-01-23 08:53:00
4:53 AM,19.0,3.0,50,30.36,10.0,WNW,3.5,-,N/A,,Overcast,290,2013-01-23 09:53:00
5:53 AM,19.0,3.0,50,30.38,10.0,WNW,5.8,-,N/A,,Overcast,300,2013-01-23 10:53:00
6:53 AM,19.0,3.0,50,30.38,10.0,Calm,Calm,-,N/A,,Overcast,0,2013-01-23 11:53:00
7:53 AM,19.0,3.9,52,30.38,10.0,Calm,Calm,-,N/A,,Overcast,0,2013-01-23 12:53:00
8:53 AM,19.9,5.0,52,30.38,10.0,Calm,Calm,-,N/A,,Clear,0,2013-01-23 13:53:00
9:53 AM,23.0,7.0,50,30.39,10.0,SW,3.5,-,N/A,,Clear,230,2013-01-23 14:53:00
10:53 AM,27.0,5.0,39,30.38,10.0,West,4.6,-,N/A,,Clear,260,2013-01-23 15:53:00
11:53 AM,30.0,7.0,38,30.34,10.0,WSW,6.9,-,N/A,,Clear,240,2013-01-23 16:53:00
12:53 PM,30.9,9.0,40,30.30,10.0,SSW,5.8,-,N/A,,Mostly Cloudy,210,2013-01-23 17:53:00
1:53 PM,33.1,10.9,40,30.25,10.0,WSW,8.1,-,N/A,,Overcast,250,2013-01-23 18:53:00
2:53 PM,35.1,12.9,40,30.23,10.0,WSW,9.2,-,N/A,,Clear,240,2013-01-23 19:53:00
3:53 PM,37.0,12.9,37,30.19,10.0,WSW,5.8,-,N/A,,Clear,240,2013-01-23 20:53:00
4:53 PM,37.9,15.1,39,30.17,10.0,SW,4.6,-,N/A,,Clear,230,2013-01-23 21:53:00
5:53 PM,37.0,15.1,41,30.15,10.0,WSW,3.5,-,N/A,,Clear,250,2013-01-23 22:53:00
6:53 PM,35.1,17.1,48,30.13,10.0,Calm,Calm,-,N/A,,Clear,0,2013-01-23 23:53:00
7:53 PM,30.0,17.1,59,30.13,10.0,Calm,Calm,-,N/A,,Clear,0,2013-01-24 00:53:00
8:53 PM,28.0,18.0,66,30.12,10.0,Calm,Calm,-,N/A,,Clear,0,2013-01-24 01:53:00
9:53 PM,28.0,18.0,66,30.11,10.0,Calm,Calm,-,N/A,,Clear,0,2013-01-24 02:53:00
10:53 PM,26.1,18.0,71,30.13,10.0,Calm,Calm,-,N/A,,Mostly Cloudy,0,2013-01-24 03:53:00